THORAD DELTA 1 DEB, 14879

Orbit data source: Space-Track

THORAD DELTA 1 DEB, 14879 is space debris in SSO originally from a launch on Fri, 15 Nov 1974 UTC launched from the Air Force Western Test Range (AFWTR). Debris objects in space refer to the collection of defunct objects orbiting the Earth. Examples of debris include non-operational satellites, rocket bodies, and fragments generated from explosions, collisions, or faulty payload assembly.

Loading next visibility...
Identifier
14879, 1974-089ES
Orbit
SSO
Country
Flag of USUS
Related business
Manufacturer
Unknown
Mission
Spacecraft
Bus & Motor
Unknown
Mass
Unknown
Launch date (UTC)
1974-11-15 (51 years ago)
Launch vehicle
Unknown
Launch site
Air Force Western Test Range (AFWTR)
Object type
Payload
Rocket body
Debris
Shape & HBR
Unknown shape, 0.1 m
Radar Cross Section
Small (<0.1 m²)

Expand to show TLE details & history
Last TLE update: 1 day ago

TLE from 1 day ago
0 THORAD DELTA 1 DEB
1 14879U 74089ES  26022.77657847  .00000043  00000-0  77268-3 0  9990
2 14879 101.2828 320.6534 0215183 348.5476  37.7273 12.15608039539611
Epoch: 2026-01-22T18:38Z
TLE epoch observation values (Epoch: 2026-01-22T18:38:16.379Z)
Latitude
27.27189°
Longitude
-86.91388°
Altitude
1,480.168 km
Speed
7.185 km/s
True Right ascension
20h 59m 07s
True Declination
27° 08' 42"
Sunlit
Object was in daylight at epoch
Visualization orbit readout
Latitude
Unknown
Longitude
Unknown
Altitude
Unknown
Speed
Unknown
Apparent Right ascension
Unknown
Apparent Declination
Unknown
Sunlit
N/A
Visualization observer readout
Local Sidereal Time
21:01:26
Azimuth
Unknown
Elevation
Unknown
Doppler factor
Unknown
Orbital elements
Apogee altitude
1,781.169 km
Perigee altitude
1,437.417 km
Semi-major axis
7,987.43 km
Eccentricity
0.02152
Inclination
101.2828°
RAAN
320.6534°
Arg. of periapsis
348.5476°
True anomaly
39.26872°
Mean anomaly
37.7273°
Eccentric anomaly
38.49471°
Mean motion
3.04041 °/min
Orbital period
118.4 mins
BSTAR
0.00077268

Documentation

Showing up to 5 results
|